Hourly Data Report for September 12, 2017

All times are specified in Local Standard Time (LST). Add 1 hour to adjust for Daylight Saving Time where and when it is observed.

QIKIQTARJUAQ A
NUNAVUT

67°32'48.000" N
64°01'54.000" W
5.50 m
2400577
YVM

Download Data

Hourly Data (September 2017)
Hourly Data Report for September 12, 2017
Temp Definition
°C
Dew Point Temp Definition
°C
Rel Hum Definition
%
Wind Dir Definition
10's deg

Wind Spd Definition
km/h
Visibility Definition
km
Stn Press Definition
kPa
Hmdx Definition


Wind Chill Definition


Weather Definition


TIME
00:00 Legend Double Dagger 1.9 -2.8 71 LegendMM 4 16.1 100.79     LegendNANA
01:00 Legend Double Dagger 1.9 -0.5 84 32 4 16.1 100.77     LegendNANA
02:00 Legend Double Dagger 2.0 -2.5 72 LegendMM 4 16.1 100.78     LegendNANA
03:00 Legend Double Dagger 2.1 -1.5 77 LegendMM 4 16.1 100.78     LegendNANA
04:00 Legend Double Dagger 1.6 -2.4 75 22 8 16.1 100.77     LegendNANA
05:00 Legend Double Dagger 1.2 -1.2 84 20 9 16.1 100.77     LegendNANA
06:00 Legend Double Dagger 1.2 -1.7 81 17 5 16.1 100.76     LegendNANA
07:00 Legend Double Dagger 2.3 -2.0 73 9 5 16.1 100.75     LegendNANA
08:00 Legend Double Dagger 2.7 -1.1 76 21 8 16.1 100.74     LegendNANA
09:00 Legend Double Dagger 2.8 -0.6 78 24 9 16.1 100.74     LegendNANA
10:00 Legend Double Dagger 2.5 0.7 88 35 9 16.1 100.72     LegendNANA
11:00 Legend Double Dagger 2.2 0.6 89 2 9 16.1 100.70     LegendNANA
12:00 Legend Double Dagger 2.4 0.7 88 3 8 16.1 100.68     LegendNANA
13:00 Legend Double Dagger 2.5 1.0 90 35 5 16.1 100.69     LegendNANA
14:00 Legend Double Dagger 2.3 0.7 89   0 16.1 100.68     LegendNANA
15:00 Legend Double Dagger 1.9 0.9 93 21 8 16.1 100.67     Rain
16:00 Legend Double Dagger 1.5 0.8 95 21 5 16.1 100.69     Rain
17:00 Legend Double Dagger 1.0 0.6 97   0 14.5 100.71     Rain
18:00 Legend Double Dagger 0.6 0.5 99 LegendMM 4 3.2 100.73     Snow
19:00 Legend Double Dagger 0.3 0.3 100 26 4 3.2 100.73     Snow
20:00 Legend Double Dagger 0.2 0.2 100 21 5 2.0 100.71     Snow
21:00 Legend Double Dagger 0.7 0.3 97 17 15 11.3 100.69     Snow
22:00 Legend Double Dagger 1.0 0.0 93 13 35 16.1 100.63     Rain
23:00 Legend Double Dagger 0.9 -0.3 92 13 46 9.7 100.64     Snow

Notes on Data Quality.

Legend

  • E = Estimated
  • M = Missing
  • NA = Not Available
  • ‡ = Partner data that is not subject to review by the National Climate Archives
Date modified: